Regional Weather Roundup
Issued by NWS

Home | Current Version | Previous Version | Graphics & Text | Print | Product List | Glossary On
Versions: 1 2 3 4 5 6 7 8 9 10 11 12 13 14 15 16 17 18 19 20 21 22 23 24 25 26 27
000
ASUS45 KBOU 161606
RWRCO

WEATHER ROUNDUP FOR COLORADO
NATIONAL WEATHER SERVICE DENVER/BOULDER CO
1000 AM MDT WED APR 16 2014

NOTE: "FAIR" INDICATES FEW OR NO CLOUDS BELOW 12000 FEET WITH NO
SIGNIFICANT WEATHER AND/OR OBSTRUCTIONS TO VISIBILITY.

COZ001>005-013-030-031-161700-
...NORTHWEST COLORADO...

CITY           SKY/WX    TMP DP  RH WIND       PRES   REMARKS
CRAIG          SUNNY     43  13  29 NW12      30.00R
HAYDEN         SUNNY     39  16  38 N5        30.02R
MEEKER         MOSUNNY   44  16  32 VRB3      30.00S
MOUNT WERNER   NOT AVBL
STEAMBOAT SPGS MOSUNNY   38  12  34 W8        29.99S
WALDEN         MOSUNNY   34  12  40 W12       29.96R WCI  25
$$

COZ006>008-011-161700-
...WEST CENTRAL VALLEYS...

CITY           SKY/WX    TMP DP  RH WIND       PRES   REMARKS
GRAND JUNCTION PTSUNNY   51  16  24 NE16      29.95R
MONTROSE       CLOUDY    50  19  29 VRB5      29.97R
EAGLE          MOSUNNY   43  14  31 CALM      29.99F
RIFLE          PTSUNNY   46  15  28 W6        29.98S
DELTA          CLOUDY    50  27  41 CALM      29.95R
NUCLA            N/A     50  21  32 CALM      29.97S
$$

COZ017>023-064>068-161700-
...SOUTHWEST COLORADO...

CITY           SKY/WX    TMP DP  RH WIND       PRES   REMARKS
DURANGO        CLOUDY    44  10  25 CALM      29.93S
CORTEZ         SUNNY     52  17  25 CALM      29.92S
PAGOSA SPRINGS CLOUDY    47   3  16 SW3       29.95R
TELLURIDE      CLOUDY    43  12  28 CALM      29.99S
WOLF CREEK PAS MOSUNNY   34   9  35 SW10G17   30.05R WCI  26
$$

COZ009-010-012-014-032>034-037-058>063-161700-
...CENTRAL COLORADO...

CITY           SKY/WX    TMP DP  RH WIND       PRES   REMARKS
ASPEN          CLOUDY    40  14  34 VRB7      29.96R
BUENA VISTA    PTSUNNY   49  10  20 W21G31    29.88R
COPPER MTN     PTSUNNY   23  18  80 W15       29.99S WCI  10
BERTHOUD PASS  CLOUDY    12   3  67 MISG      30.00R
COTTONWOOD PAS PTSUNNY   41   5  22 W28G40    29.91R
GUNNISON       CLOUDY    45  19  36 SW10      29.96S
KREMMLING      SUNNY     37  12  35 W7        30.00R
LEADVILLE      PTSUNNY   32  14  47 NW9G20    29.96R WCI  24
MONARCH PASS   PTSUNNY   27  12  54 W41G49    30.09F WCI   8
SALIDA         PTSUNNY   50  11  20 W17G24    29.97R
SUNLIGHT       CLOUDY    28  12  50 CALM      30.03R
WILKERSON PASS MOSUNNY   30  14  51 W12G24    29.98R WCI  21
$$

COZ069>075-161700-
...SAN LUIS VALLEY/SANGRE DE CRISTO MOUNTAINS...

CITY           SKY/WX    TMP DP  RH WIND       PRES   REMARKS
ALAMOSA        SUNNY     51  12  21 E6        29.91F
LA VETA PASS   MOSUNNY   43  10  26 W5        29.99S
SAGUACHE       MOSUNNY   52  12  20 N18G29    29.91S
$$

COZ035-036-038>040-161700-
...NORTHERN COLORADO FRONT RANGE...

CITY           SKY/WX    TMP DP  RH WIND       PRES   REMARKS
DENVER INTL AP MOSUNNY   48  25  40 N17       29.89R
DMNS CITY PARK   N/A     48  25  40 NE14G22   29.89R
AURORA         PTSUNNY   46  27  46 N16       29.91R
FRONT RANGE AP PTSUNNY   46  27  46 N8        29.90R
ERIE MUNI ARPT MOSUNNY   48  24  39 N16G22    29.89R
BOULDER MUN AP MOSUNNY   52  14  22 N17G25    29.87S
CENTENNIAL     PTSUNNY   48  17  29 N22G30    29.88R
BROOMFIELD     MOSUNNY   48  25  40 N12       29.90R
FORT COLLINS   SUNNY     46  25  42 N25G31    29.93R
LONGMONT       SUNNY     55  25  31 N9G16     29.89S
$$

COZ041-046-047-076>085-087-088-161700-
...PIKES PEAK/PALMER DIVIDE AND SOUTHERN FOOTHILLS...

CITY           SKY/WX    TMP DP  RH WIND       PRES   REMARKS
COLO. SPRINGS  PTSUNNY   50  18  28 N21       29.87R
A. F. ACADEMY  PTSUNNY   47  17  31 N18G24    29.87S
ELLICOTT       NOT AVBL
FALCON         PTSUNNY   45  20  36 N15G22    29.90R
FORT CARSON    PTSUNNY   51  21  31 N16       29.85R
LIMON          SUNNY     48  25  40 N28       29.89R
MONUMENT HILL  MOSUNNY   41  19  42 N15G21    29.89R
TRINIDAD       SUNNY     51  26  37 E15       29.89R
$$

COZ042>045-048>051-090-091-161700-
...NORTHEAST COLORADO...

CITY           SKY/WX    TMP DP  RH WIND       PRES   REMARKS
GREELEY ARPT   MOSUNNY   50  25  37 NW30G39   29.91R
AKRON          MOSUNNY   46  31  55 N33G40    29.88R
BURLINGTON     MOSUNNY   50  29  44 N35G45    29.84R
WRAY           SUNNY     53  33  46 NW20G33   29.86R
STERLING       SUNNY     54  32  43 N29G37    29.86S
HOLYOKE        SUNNY     54  34  47 NW29G43   29.83R
FORT MORGAN    SUNNY     49  29  44 NW23G32   29.91R
$$

COZ086-089-092>099-161700-
...SOUTHEAST COLORADO...

CITY           SKY/WX    TMP DP  RH WIND       PRES   REMARKS
PUEBLO         SUNNY     56  25  30 E9        29.85R
LA JUNTA       SUNNY     58  24  27 NE20      29.86R
LAMAR          MOSUNNY   59  27  29 N26       29.83R
SPRINGFIELD      N/A     55  27  34 N25G31    29.85R
$$



USA.gov is the U.S. government's official web portal to all federal, state and local government web resources and services.